This is the latest recevied weather packets stored in our database for station/object W1REE. If no packets are shown the sender has not sent any weather packets the latest 10 day(s).
| Time | Temp. | Humidity | Pressure | Rain* | Wind** | Luminosity | Snow |
|---|---|---|---|---|---|---|---|
| 1777936859 | 17.78° C | 30% | 1010 hPa | 0 mm | - | 134 W/m² | - |
| 1777936555 | 17.78° C | 31% | 1009.9 hPa | 0 mm | - | 188 W/m² | - |
| 1777936251 | 17.78° C | 31% | 1009.9 hPa | 0 mm | - | 208 W/m² | - |
| 1777935947 | 17.78° C | 32% | 1010 hPa | 0 mm | - | 207 W/m² | - |
| 1777935647 | 17.78° C | 31% | 1010 hPa | 0 mm | - | 256 W/m² | - |
| 1777935343 | 17.22° C | 30% | 1010 hPa | 0 mm | - | 154 W/m² | - |
| 1777935040 | 17.22° C | 30% | 1009.9 hPa | 0 mm | - | 103 W/m² | - |
| 1777934737 | 17.22° C | 31% | 1010 hPa | 0 mm | - | 104 W/m² | - |
| 1777934434 | 17.22° C | 32% | 1010.1 hPa | 0 mm | - | 134 W/m² | - |
| 1777934131 | 17.22° C | 34% | 1010.3 hPa | 0 mm | - | 120 W/m² | - |
| 1777933827 | 16.67° C | 33% | 1010.5 hPa | 0 mm | - | 159 W/m² | - |
| 1777933523 | 16.11° C | 35% | 1010.4 hPa | 0 mm | - | 160 W/m² | - |
| 1777933221 | 16.11° C | 37% | 1010.4 hPa | 0 mm | - | 122 W/m² | - |
| 1777932918 | 16.67° C | 38% | 1010.3 hPa | 0 mm | - | 80 W/m² | - |
| 1777932615 | 17.22° C | 33% | 1010.5 hPa | 0 mm | - | 66 W/m² | - |
| 1777932312 | 17.22° C | 32% | 1010.5 hPa | 0 mm | - | 63 W/m² | - |
| 1777932009 | 17.22° C | 30% | 1010.6 hPa | 0 mm | - | 51 W/m² | - |
| 1777931705 | 17.78° C | 30% | 1010.3 hPa | 0 mm | - | 59 W/m² | - |
| 1777931403 | 17.78° C | 30% | 1010.3 hPa | 0 mm | - | 72 W/m² | - |
| 1777931098 | 17.78° C | 30% | 1010.4 hPa | 0 mm | - | 86 W/m² | - |
| 1777930795 | 18.89° C | 28% | 1010 hPa | 0 mm | - | 73 W/m² | - |
| 1777930491 | 19.44° C | 22% | 1009.9 hPa | 0 mm | - | 63 W/m² | - |
| 1777930189 | 19.44° C | 21% | 1009.8 hPa | 0 mm | - | 66 W/m² | - |
| 1777929884 | 20.56° C | 20% | 1009.8 hPa | 0 mm | - | 74 W/m² | - |
| 1777929582 | 21.11° C | 20% | 1009.5 hPa | 0 mm | - | 67 W/m² | - |
* Rain latest hour (hover to see other rain measurements)
** Current wind speed in m/s (hover to see current wind gust speed)